TimeMST,TemperatureF,Dew PointF,Humidity,Sea Level PressureIn,VisibilityMPH,Wind Direction,Wind SpeedMPH,Gust SpeedMPH,PrecipitationIn,Events,Conditions,WindDirDegrees,DateUTC
12:53 AM,17.1,10.9,77,30.30,10.0,ENE,8.1,-,N/A,,Clear,70,2013-01-21 07:53:00
1:53 AM,15.1,10.0,80,30.29,10.0,NE,6.9,-,N/A,,Clear,50,2013-01-21 08:53:00
2:53 AM,14.0,9.0,80,30.27,10.0,NE,5.8,-,N/A,,Clear,50,2013-01-21 09:53:00
3:45 AM,12.2,8.6,85,30.24,10.0,NW,5.8,-,N/A,,Scattered Clouds,320,2013-01-21 10:45:00
3:53 AM,12.9,9.0,84,30.28,10.0,NNW,5.8,-,N/A,,Mostly Cloudy,340,2013-01-21 10:53:00
4:53 AM,17.1,12.0,81,30.28,10.0,North,4.6,-,N/A,,Overcast,360,2013-01-21 11:53:00
5:53 AM,19.0,12.9,77,30.33,10.0,Calm,Calm,-,N/A,,Overcast,0,2013-01-21 12:53:00
6:53 AM,18.0,12.9,81,30.33,10.0,West,4.6,-,N/A,,Overcast,270,2013-01-21 13:53:00
7:10 AM,17.6,15.8,93,30.26,1.8,West,3.5,-,N/A,,Overcast,280,2013-01-21 14:10:00
7:14 AM,19.4,15.8,86,30.26,0.8,West,3.5,-,N/A,,Overcast,270,2013-01-21 14:14:00
7:53 AM,19.0,17.1,92,30.34,0.2,West,3.5,-,N/A,Fog,Light Freezing Fog,270,2013-01-21 14:53:00
8:53 AM,19.9,17.1,89,30.37,0.5,West,4.6,-,N/A,Fog,Light Freezing Fog,280,2013-01-21 15:53:00
9:06 AM,21.2,17.6,86,30.27,1.0,WSW,3.5,-,N/A,,Overcast,250,2013-01-21 16:06:00
9:16 AM,19.4,17.6,93,30.27,2.0,WSW,4.6,-,N/A,,Overcast,240,2013-01-21 16:16:00
9:24 AM,21.2,17.6,86,30.26,9.0,WSW,6.9,-,N/A,,Mostly Cloudy,240,2013-01-21 16:24:00
9:41 AM,21.2,17.6,86,30.26,10.0,SW,5.8,-,N/A,,Scattered Clouds,220,2013-01-21 16:41:00
9:53 AM,21.9,18.0,85,30.34,10.0,SW,8.1,-,N/A,,Clear,220,2013-01-21 16:53:00
10:53 AM,28.9,19.0,67,30.30,10.0,SW,9.2,-,N/A,,Clear,220,2013-01-21 17:53:00
11:53 AM,36.0,18.0,48,30.24,10.0,Variable,3.5,-,N/A,,Clear,0,2013-01-21 18:53:00
12:53 PM,42.1,17.1,37,30.19,10.0,Calm,Calm,-,N/A,,Clear,0,2013-01-21 19:53:00
1:53 PM,45.0,16.0,31,30.18,10.0,Calm,Calm,-,N/A,,Clear,0,2013-01-21 20:53:00
2:53 PM,48.9,14.0,25,30.13,10.0,SSE,9.2,-,N/A,,Clear,160,2013-01-21 21:53:00
3:53 PM,50.0,15.1,25,30.12,10.0,SSE,5.8,-,N/A,,Clear,150,2013-01-21 22:53:00
4:53 PM,45.0,12.9,27,30.12,10.0,SE,5.8,-,N/A,,Clear,130,2013-01-21 23:53:00
5:53 PM,42.1,14.0,32,30.12,10.0,Calm,Calm,-,N/A,,Clear,0,2013-01-22 00:53:00
6:53 PM,43.0,15.1,32,30.12,10.0,NNE,3.5,-,N/A,,Clear,20,2013-01-22 01:53:00
7:53 PM,41.0,15.1,35,30.12,10.0,Calm,Calm,-,N/A,,Clear,0,2013-01-22 02:53:00
8:53 PM,30.9,10.0,42,30.15,10.0,WNW,6.9,-,N/A,,Clear,290,2013-01-22 03:53:00
9:53 PM,28.0,9.0,45,30.17,10.0,WNW,8.1,-,N/A,,Clear,290,2013-01-22 04:53:00
10:53 PM,28.9,9.0,43,30.14,10.0,West,15.0,-,N/A,,Clear,260,2013-01-22 05:53:00
11:53 PM,24.1,3.9,42,30.14,10.0,West,12.7,-,N/A,,Clear,270,2013-01-22 06:53:00